Location: Averill Park
(42.6340°N, 73.5537°W)
Time: 18:59:49
(UTC+00:00)

Envisat - Pass Details

Date: 08 October 2024
Orbit: 761 x 763 km, 98.3° (Epoch: 08 November)

Event Time Altitude Azimuth Distance (km) Brightness Sun altitude
Rises 09:37:20 0° 355° (N) 3,236 6.3 -16.0°
Reaches altitude 10° 09:40:37 10° 333° (NNW) 2,304 5.3 -15.4°
Enters shadow 09:43:00 15° 305° (NW) 1,995 4.7 -14.9°
